Regional Weather Roundup
Issued by NWS

Home | Current Version | Previous Version | Text Only | Print | Product List | Glossary Off
Versions: 1 2 3 4 5 6 7 8 9 10 11 12 13 14 15 16 17 18 19 20 21 22 23 24 25 26 27 28 29 30 31 32 33 34 35 36 37 38 39 40 41 42 43 44 45 46 47 48 49 50

350
ASUS43 KLOT 010012
RWRIL

ILLINOIS REGIONAL WEATHER ROUNDUP
NATIONAL WEATHER SERVICE CHICAGO/ROMEOVILLE IL
700 PM CDT FRI SEP 30 2016

NOTE: "FAIR" INDICATES FEW OR NO CLOUDS BELOW 12,000 FEET WITH NO
SIGNIFICANT WEATHER AND/OR OBSTRUCTIONS TO VISIBILITY.

* THESE STATIONS ARE NOT UNDER NWS QUALITY CONTROL. THEY ALSO MAY NOT
  REPORT WEATHER SUCH AS PRECIPITATION OR FOG.

ILZ001-002-007-009-015-016-024-010100-
NORTHWEST ILLINOIS

CITY           SKY/WX    TMP DP  RH WIND       PRES   REMARKS
MOLINE         CLOUDY    63  58  83 N6        30.11S
6HR MIN TEMP:  63; 6HR MAX TEMP:  67;

STERLING*      LGT RAIN  61  59  93 N9        30.11S
SAVANNA*       CLOUDY    61  58  91 N7        30.12F
$$

ILZ003-004-008-010-011-017-018-010100-
NORTH CENTRAL ILLINOIS

CITY           SKY/WX    TMP DP  RH WIND       PRES   REMARKS
ROCKFORD       DRIZZLE   62  58  86 NE12      30.12F
6HR MIN TEMP:  62; 6HR MAX TEMP:  70; 6HR PCP: TRACE;

FREEPORT*      CLOUDY    60  56  87 NE10G16   30.14S
ROCHELLE*      CLOUDY    61  60  96 NE12      30.10S
DE KALB*       CLOUDY    62  59  90 NE9       30.10R
$$

ILZ005-006-012>014-019>023-010100-
NORTHEAST ILLINOIS

CITY           SKY/WX    TMP DP  RH WIND       PRES   REMARKS
CHICAGO-OHARE  CLOUDY    63  58  83 NE13      30.07F
6HR MIN TEMP:  63; 6HR MAX TEMP:  64; 6HR PCP: TRACE;

CHICAGO-MIDWAY LGT RAIN  64  58  80 NE14      30.07S
6HR MIN TEMP:  63; 6HR MAX TEMP:  66; 6HR PCP:  0.01;

AURORA         CLOUDY    64  58  80 NE13      30.08S
6HR MIN TEMP:  64; 6HR MAX TEMP:  67;

LANSING*       LGT RAIN  61  61 100 NE10      30.06S
JOLIET*        CLOUDY    64  60  85 NE9G16    30.06S
WAUKEGAN       CLOUDY    63  59  87 NE8       30.09S
6HR MIN TEMP:  63; 6HR MAX TEMP:  64;

DUPAGE AIRPORT CLOUDY    63  58  83 NE13      30.07S
6HR MIN TEMP:  63; 6HR MAX TEMP:  65; 6HR PCP: TRACE;

KANKAKEE*      HVY RAIN  62  60  94 NE8G16    30.04F
WHEELING       CLOUDY    63  58  83 NE9       30.09F
6HR MIN TEMP:  63; 6HR MAX TEMP:  65; 6HR PCP: TRACE;

MORRIS*        CLOUDY    64  58  83 CALM      30.05S
ROMEOVILLE*    CLOUDY    62  61  96 NE12G20   30.06S
NORTHERLY ISL    N/A     61  58  90 NE16        N/A
$$

LMZ740>746-010100-
SOUTHERN LAKE MICHIGAN

STATION/POSITION SKY/WX   TEMP    WIND        PRES    VSBY  WAVE
                          AIR SEA DIR/SP/G                  HT/PER
                          (F)     (DEG/KT/KT) (MB)    (MI)  (FT/S)
SOUTHERN BUOY              64 68   70/ 21/ 25 1018.3F         5/ 6
WILMETTE HARBOR            62 58   80/ 12/ 16   N/A           6/ 7
HARRISON CRIB              64      70/ 22/ 24   N/A
BURNHAM HARBOR             61      50/ 15/ 16   N/A
CALUMET HARBOR                     40/ 11/ 15 1017.6F
BURNS HARBOR               62      50/ 20/ 24 1017.9
MICHIGAN CITY              61      20/ 17/ 18   N/A
MICHIGAN CITY 6N           62 64   40/ 16/ 19   N/A           5/ 6
ST. JOSEPH                 55 51   30/  8/ 10 1018.7          4/ 5
$$

ILZ025>027-034>036-040-047-049-050-058-095>099-010100-
WEST-CENTRAL ILLINOIS

CITY           SKY/WX    TMP DP  RH WIND       PRES   REMARKS
QUINCY         CLOUDY    64  57  78 N8        30.08S
GALESBURG*     CLOUDY    62  58  86 N10       30.09S
MACOMB*        CLOUDY    63  58  83 N10       30.10S
JACKSONVILLE*  CLOUDY    65  59  80 N8        30.06R
PITTSFIELD*    CLOUDY    65  58  79 NW9       30.08S
$$

ILZ028>032-037-038-041>044-048-051>054-059>061-010100-
CENTRAL ILLINOIS

CITY           SKY/WX    TMP DP  RH WIND       PRES   REMARKS
PONTIAC        CLOUDY    64  62  93 N13       30.05F
BLOOMINGTON    RAIN      62  60  93 N13       30.05S
DECATUR        CLOUDY    64  58  80 N12       30.02R
PEORIA         CLOUDY    62  61  96 N6        30.06S
6HR MIN TEMP:  62; 6HR MAX TEMP:  66; 6HR PCP:  0.17;

LACON*         DRIZZLE   64  58  83 NE8       30.06R
LINCOLN*       CLOUDY    65  61  88 N3        30.03R
SPRINGFIELD    MOCLDY    64  61  90 N8        30.04S
6HR MIN TEMP:  64; 6HR MAX TEMP:  68; 6HR PCP:  0.02;

TAYLORVILLE    CLOUDY    62  61  97 NW7       30.03R
6HR MIN TEMP:  62; 6HR MAX TEMP:  65; 6HR PCP:  0.01;

$$

ILZ033-039-045-046-055>057-062-063-010100-
EAST-CENTRAL ILLINOIS

CITY           SKY/WX    TMP DP  RH WIND       PRES   REMARKS
CHAMPAIGN      CLOUDY    63  60  90 N8        30.01S
RANTOUL*       CLOUDY    65  62  90 N12       30.01S
MATTOON        LGT RAIN  63  60  90 N5        29.99S
PARIS*         MOCLDY    62  60  93 CALM      30.00S
$$

ILZ079-100>102-010100-
SOUTHWEST ILLINOIS

CITY           SKY/WX    TMP DP  RH WIND       PRES   REMARKS
ALTON          CLOUDY    64  59  82 NW9       30.04
BELLEVILLE     CLEAR     63  63  99 NW7       30.02S
CAHOKIA*       LGT RAIN  65  59  81 NW9       30.04S
SPARTA*        CLOUDY    63  59  88 NW8       30.04S
$$

ILZ064>066-069>071-074>076-080>082-084>086-088>090-092>094-010100-
SOUTH-CENTRAL ILLINOIS

CITY           SKY/WX    TMP DP  RH WIND       PRES   REMARKS
CARBONDALE     CLOUDY    62  62 100 W5        30.02S
6HR MIN TEMP:  62; 6HR MAX TEMP:  69; 6HR PCP:  0.16;

CAIRO*         LGT RAIN  64  61  90 NW5       30.03S
EFFINGHAM*     MOCLDY    64  62  94 NW5       30.01S
MARION         CLOUDY    64  63  94 W3        30.02S
MT. VERNON     CLOUDY    64  55  72 CALM      30.00F
CENTRALIA*     LGT RAIN  66  62  87 N9        30.00S
SALEM*         CLOUDY    64  61  90 NW7       30.01R
METROPOLIS*    MOCLDY    63  60  91 W3        30.03S
$$

ILZ067-068-072-073-078-083-087-091-010100-
SOUTHEAST ILLINOIS

CITY           SKY/WX    TMP DP  RH WIND       PRES   REMARKS
LAWRENCEVILLE  CLOUDY    63  56  78 SE5       30.00R
FLORA*         MOCLDY    64  61  89 N5        30.00R
FAIRFIELD*       N/A     61  60  96 E5        29.99R
HARRISBURG*    CLOUDY    63  60  87 W5        30.00F
ROBINSON*      CLOUDY    59  58  97 SE5       30.01R
CARMI*         RAIN      62  62 100 CALM      30.00R
$$

ABBREVIATIONS USED IN REMARKS
   TC - TEMPERATURE IN CELSIUS
  WCI - WIND CHILL INDEX
   HX - HEAT INDEX
  VSB - VISIBILITY
$$





USA.gov is the U.S. government's official web portal to all federal, state and local government web resources and services.